Temp
-7 -7 -7 -7 -7 -7 -6 -6 -6 -6 -6 -7 -7 -7 -7 -7 -7 -7 -7 -7 -8 -8 -8 -8 -8 -8 -8 -8 -8 -8 -8 -9 -9 -9 -9 -8 -8 -7 -9 -10 -10 -9 -9 -9 -8
-7 -7 -6 -6 -6 -6 -6 -6 -6 -6 -7 -6 -7 -7 -7 -7 -7 -7 -7 -7 -8 -8 -8 -8 -8 -8 -7 -7 -8 -8 -8 -9 -9 -9 -9 -8 -8 -9 -10 -10 -10 -9 -9 -9 -8
-7 -6 -6 -6 -6 -6 -6 -6 -6 -7 -6 -6 -6 -7 -7 -7 -7 -7 -8 -7 -7 -8 -8 -8 -8 -8 -8 -8 -8 -8 -8 -9 -9 -9 -9 -8 -8 -9 -9 -8 -9 -9 -9 -9 -8
-6 -6 -6 -6 -6 -6 -6 -6 -6 -6 -6 -6 -6 -6 -7 -7 -7 -7 -7 -7 -7 -7 -7 -8 -8 -8 -8 -8 -8 -8 -8 -9 -9 -9 -8 -8 -7 -6 -8 -8 -8 -8 -8 -8 -8
-7 -6 -6 -6 -6 -6 -6 -6 -6 -6 -6 -6 -6 -6 -6 -6 -7 -7 -7 -7 -7 -7 -7 -7 -7 -7 -7 -8 -8 -8 -8 -9 -9 -8 -8 -8 -7 -7 -8 -8 -8 -8 -8 -9 -8
-7 -7 -7 -6 -6 -6 -6 -6 -6 -6 -6 -7 -7 -7 -6 -6 -6 -7 -7 -7 -7 -7 -7 -7 -7 -7 -7 -7 -8 -8 -8 -8 -8 -8 -8 -7 -7 -7 -8 -8 -8 -8 -9 -9 -9
-7 -7 -7 -7 -7 -6 -6 -6 -6 -6 -6 -6 -7 -7 -7 -7 -7 -6 -7 -7 -7 -7 -7 -7 -7 -8 -7 -7 -8 -8 -8 -8 -8 -8 -8 -7 -7 -7 -8 -8 -9 -9 -8 -9 -9
-8 -7 -7 -7 -7 -7 -7 -7 -7 -6 -7 -7 -7 -7 -7 -7 -7 -7 -7 -7 -7 -7 -7 -7 -7 -8 -8 -8 -8 -8 -8 -8 -8 -8 -8 -9 -9 -8 -9 -10 -10 -9 -9 -9 -8
-8 -8 -8 -7 -7 -7 -7 -7 -7 -7 -7 -7 -7 -7 -7 -7 -7 -7 -7 -7 -7 -7 -7 -7 -7 -7 -7 -7 -8 -8 -8 -8 -8 -9 -9 -9 -9 -9 -10 -10 -9 -9 -9 -8 -8
-8 -8 -8 -8 -7 -7 -7 -7 -7 -7 -7 -7 -7 -7 -7 -7 -7 -7 -7 -7 -7 -7 -7 -7 -7 -7 -7 -8 -8 -8 -8 -9 -9 -9 -9 -10 -9 -10 -10 -10 -10 -9 -9 -9 -8
-9 -8 -8 -8 -8 -7 -7 -7 -7 -7 -7 -7 -7 -7 -7 -7 -7 -7 -7 -7 -7 -7 -7 -7 -7 -8 -8 -8 -9 -8 -8 -8 -8 -8 -8 -8 -9 -10 -9 -9 -9 -9 -8 -8 -9
-9 -9 -9 -8 -8 -8 -8 -7 -7 -7 -8 -7 -7 -7 -7 -7 -7 -7 -7 -7 -7 -7 -7 -7 -8 -8 -7 -8 -8 -8 -8 -8 -9 -9 -8 -8 -8 -8 -9 -8 -9 -10 -9 -9 -9
-9 -9 -9 -9 -9 -8 -8 -8 -8 -8 -8 -7 -8 -8 -7 -7 -7 -7 -7 -7 -7 -7 -7 -8 -7 -7 -7 -7 -8 -8 -8 -8 -9 -10 -9 -9 -9 -9 -9 -8 -9 -11 -10 -10 -10
-9 -9 -9 -8 -8 -8 -8 -8 -8 -8 -8 -8 -7 -8 -7 -7 -8 -8 -8 -8 -8 -8 -8 -8 -8 -8 -8 -8 -8 -8 -8 -8 -8 -8 -10 -10 -9 -10 -10 -10 -10 -11 -11 -10 -10
-9 -9 -9 -9 -9 -8 -8 -8 -8 -8 -8 -8 -8 -8 -8 -8 -8 -8 -8 -8 -8 -8 -8 -9 -8 -8 -8 -8 -8 -8 -9 -9 -8 -8 -9 -10 -10 -10 -11 -11 -11 -11 -11 -11 -11
-10 -10 -10 -9 -9 -9 -9 -9 -9 -9 -8 -8 -8 -8 -8 -8 -8 -8 -8 -8 -8 -8 -8 -8 -8 -8 -8 -8 -9 -9 -9 -9 -9 -9 -9 -9 -10 -10 -11 -10 -10 -10 -11 -10 -10
-10 -10 -10 -10 -9 -9 -9 -9 -9 -9 -9 -9 -9 -9 -9 -9 -8 -8 -8 -8 -8 -8 -8 -9 -8 -9 -9 -9 -9 -9 -10 -9 -9 -8 -9 -10 -10 -10 -10 -10 -10 -10 -10 -10 -10
-10 -10 -10 -10 -9 -10 -10 -9 -9 -9 -10 -9 -9 -9 -9 -9 -9 -9 -9 -9 -9 -9 -9 -8 -9 -9 -9 -10 -10 -9 -9 -9 -9 -9 -10 -10 -10 -9 -9 -9 -9 -9 -9 -10 -10
-10 -11 -10 -10 -10 -10 -10 -9 -9 -11 -10 -10 -9 -9 -9 -9 -10 -9 -9 -9 -9 -9 -9 -9 -9 -10 -10 -10 -10 -9 -9 -10 -10 -10 -10 -10 -11 -10 -10 -10 -10 -10 -10 -10 -11
-11 -11 -11 -11 -11 -11 -10 -10 -11 -11 -11 -10 -10 -10 -10 -9 -9 -9 -9 -9 -10 -10 -10 -10 -10 -10 -10 -10 -10 -10 -11 -11 -11 -11 -11 -11 -11 -11 -11 -11 -11 -11 -11 -11 -12
-12 -12 -12 -11 -11 -11 -11 -11 -11 -12 -11 -11 -11 -11 -10 -10 -9 -9 -9 -9 -10 -10 -10 -10 -10 -11 -11 -11 -12 -12 -12 -12 -12 -12 -11 -11 -11 -12 -12 -12 -12 -12 -12 -12 -12
-13 -12 -12 -12 -12 -12 -12 -12 -12 -12 -11 -11 -12 -12 -12 -11 -10 -10 -9 -10 -10 -10 -10 -11 -11 -12 -12 -12 -12 -13 -13 -13 -13 -12 -12 -12 -12 -13 -13 -13 -12 -12 -12 -13 -13
-13 -13 -12 -12 -12 -12 -12 -12 -12 -12 -11 -11 -11 -12 -13 -13 -12 -11 -11 -10 -10 -11 -11 -12 -11 -12 -13 -12 -12 -12 -12 -13 -13 -12 -13 -13 -13 -13 -13 -13 -13 -13 -13 -13 -13
-14 -13 -13 -12 -13 -13 -13 -13 -13 -12 -12 -12 -11 -12 -12 -12 -12 -12 -12 -12 -12 -12 -12 -13 -13 -13 -13 -13 -13 -13 -13 -12 -13 -13 -13 -13 -14 -14 -14 -13 -13 -13 -13 -13 -13
-14 -14 -13 -13 -13 -13 -13 -13 -13 -12 -12 -12 -11 -11 -12 -13 -13 -13 -13 -13 -13 -13 -13 -13 -13 -14 -13 -13 -12 -12 -13 -13 -13 -13 -13 -13 -13 -13 -14 -13 -13 -13 -12 -13 -13
-15 -14 -14 -14 -14 -14 -13 -14 -13 -13 -12 -12 -12 -11 -11 -13 -13 -13 -13 -13 -13 -13 -14 -14 -14 -14 -13 -13 -12 -12 -13 -13 -13 -13 -13 -13 -12 -12 -12 -12 -12 -12 -12 -13 -13
-15 -15 -15 -14 -14 -14 -14 -14 -14 -13 -13 -12 -12 -11 -12 -12 -13 -13 -13 -13 -14 -13 -13 -14 -14 -13 -13 -13 -13 -13 -13 -13 -13 -12 -12 -12 -11 -11 -12 -12 -12 -13 -13 -12 -13
Height
5872 5873 5873 5874 5874 5875 5876 5877 5877 5878 5878 5879 5880 5881 5882 5883 5884 5885 5886 5888 5888 5889 5890 5892 5894 5895 5896 5898 5902 5907 5909 5904 5905 5906 5908 5908 5909 5906 5909 5912 5913 5913 5914 5913 5911
5870 5870 5871 5872 5872 5873 5874 5875 5876 5877 5877 5878 5879 5880 5881 5881 5883 5884 5885 5886 5887 5889 5890 5891 5893 5894 5895 5896 5898 5904 5907 5902 5903 5904 5906 5908 5907 5907 5909 5910 5911 5911 5911 5911 5909
5867 5868 5869 5870 5871 5871 5872 5873 5874 5875 5876 5877 5878 5879 5880 5880 5882 5882 5883 5884 5886 5887 5888 5890 5892 5893 5894 5895 5897 5901 5904 5902 5899 5902 5904 5904 5905 5907 5907 5908 5909 5908 5906 5909 5908
5865 5866 5867 5868 5869 5870 5870 5871 5872 5873 5873 5875 5876 5877 5878 5879 5881 5881 5881 5883 5884 5885 5887 5889 5890 5891 5892 5892 5894 5896 5899 5898 5897 5898 5902 5902 5902 5903 5903 5905 5905 5904 5905 5907 5906
5862 5863 5864 5866 5867 5868 5868 5869 5870 5871 5872 5872 5874 5875 5876 5877 5878 5879 5880 5881 5883 5884 5886 5887 5888 5891 5891 5893 5895 5895 5895 5896 5896 5896 5900 5902 5902 5899 5900 5901 5902 5902 5905 5905 5904
5858 5860 5861 5863 5864 5865 5866 5867 5868 5869 5870 5871 5872 5873 5873 5875 5876 5877 5878 5880 5881 5883 5884 5886 5889 5891 5892 5893 5894 5895 5896 5897 5897 5898 5899 5900 5899 5897 5898 5897 5900 5901 5902 5901 5898
5854 5855 5857 5859 5861 5862 5864 5865 5866 5867 5868 5869 5870 5870 5871 5872 5873 5875 5876 5878 5879 5880 5882 5884 5887 5889 5891 5893 5894 5895 5896 5897 5897 5897 5896 5896 5894 5895 5897 5897 5899 5899 5899 5898 5897
5850 5851 5853 5855 5857 5858 5860 5862 5863 5864 5866 5867 5867 5868 5869 5869 5870 5872 5873 5875 5876 5878 5880 5882 5884 5885 5887 5890 5893 5893 5896 5896 5897 5897 5897 5896 5894 5894 5897 5898 5898 5898 5899 5898 5896
5845 5847 5848 5850 5852 5854 5856 5858 5859 5861 5862 5864 5865 5866 5867 5866 5867 5869 5870 5871 5873 5874 5877 5879 5880 5882 5884 5886 5888 5891 5893 5893 5895 5895 5892 5892 5892 5895 5895 5895 5895 5895 5896 5897 5895
5840 5841 5843 5845 5847 5849 5851 5853 5854 5857 5859 5860 5861 5864 5865 5865 5865 5866 5868 5868 5870 5871 5874 5876 5877 5879 5881 5882 5885 5886 5887 5888 5889 5889 5887 5886 5887 5888 5889 5890 5890 5890 5891 5892 5891
5835 5836 5838 5840 5842 5843 5846 5848 5852 5855 5855 5856 5858 5858 5860 5862 5862 5863 5864 5866 5867 5869 5871 5872 5875 5877 5876 5878 5878 5879 5881 5882 5884 5884 5883 5884 5885 5884 5885 5885 5886 5887 5886 5886 5886
5831 5832 5833 5834 5836 5837 5841 5843 5846 5850 5849 5850 5852 5853 5855 5857 5859 5859 5861 5864 5865 5865 5866 5869 5870 5870 5872 5873 5874 5876 5877 5879 5880 5880 5880 5881 5882 5881 5881 5881 5881 5881 5880 5880 5880
5824 5826 5827 5829 5830 5832 5836 5838 5840 5841 5843 5843 5845 5847 5849 5853 5853 5855 5857 5857 5860 5861 5863 5864 5865 5867 5868 5869 5871 5871 5872 5873 5876 5877 5876 5877 5878 5878 5878 5877 5876 5875 5874 5875 5875
5817 5819 5820 5823 5826 5826 5830 5832 5833 5834 5837 5839 5840 5840 5845 5847 5849 5848 5852 5854 5856 5858 5859 5859 5861 5861 5862 5866 5866 5868 5869 5869 5871 5874 5874 5872 5874 5875 5874 5874 5873 5872 5870 5869 5868
5807 5810 5812 5814 5817 5820 5824 5823 5825 5828 5829 5833 5835 5837 5839 5842 5842 5844 5845 5848 5851 5851 5856 5856 5855 5855 5860 5862 5860 5865 5862 5863 5865 5867 5868 5869 5869 5869 5870 5870 5870 5868 5867 5867 5865
5797 5800 5803 5805 5808 5812 5814 5814 5819 5821 5822 5826 5829 5829 5831 5834 5834 5838 5841 5844 5844 5845 5851 5849 5849 5852 5855 5857 5856 5859 5860 5860 5861 5863 5864 5865 5863 5862 5864 5863 5864 5864 5864 5863 5862
5786 5790 5794 5797 5798 5803 5804 5806 5811 5811 5818 5818 5820 5822 5823 5828 5829 5833 5835 5838 5840 5842 5846 5845 5846 5849 5851 5852 5853 5855 5854 5855 5857 5858 5859 5858 5857 5855 5856 5858 5857 5857 5858 5856 5856
5775 5780 5784 5785 5790 5793 5796 5798 5801 5807 5809 5809 5814 5816 5820 5821 5823 5826 5828 5831 5834 5837 5839 5841 5842 5844 5845 5847 5847 5848 5849 5850 5851 5852 5852 5851 5850 5851 5851 5851 5852 5851 5849 5849 5847
5764 5769 5772 5776 5781 5783 5786 5788 5795 5798 5800 5801 5805 5809 5812 5814 5817 5818 5822 5826 5829 5832 5834 5836 5840 5838 5840 5842 5843 5844 5844 5846 5844 5845 5846 5846 5843 5844 5845 5845 5845 5845 5843 5841 5838
5755 5759 5762 5766 5770 5773 5776 5782 5786 5789 5792 5793 5795 5800 5802 5805 5811 5812 5815 5819 5822 5825 5825 5828 5832 5832 5834 5835 5835 5837 5840 5840 5839 5840 5840 5840 5839 5839 5839 5839 5839 5837 5836 5835 5833
5746 5749 5752 5756 5759 5763 5768 5775 5778 5780 5781 5784 5786 5789 5794 5797 5801 5806 5808 5812 5815 5817 5819 5821 5824 5827 5828 5829 5830 5832 5833 5834 5835 5834 5834 5834 5834 5835 5837 5836 5832 5830 5830 5829 5827
5736 5740 5742 5746 5751 5755 5761 5765 5767 5768 5769 5774 5779 5782 5785 5790 5794 5799 5801 5803 5807 5811 5812 5814 5816 5820 5822 5823 5823 5826 5827 5828 5828 5830 5829 5829 5829 5829 5829 5829 5828 5826 5823 5821 5819
5727 5729 5734 5737 5741 5747 5750 5753 5757 5761 5764 5768 5772 5776 5779 5782 5789 5792 5793 5796 5797 5801 5804 5808 5809 5813 5815 5818 5818 5819 5821 5822 5822 5822 5824 5825 5825 5821 5822 5821 5821 5819 5817 5815 5812
5716 5719 5723 5727 5732 5736 5740 5745 5751 5753 5756 5759 5764 5770 5773 5777 5781 5784 5788 5789 5791 5793 5796 5800 5803 5806 5811 5815 5815 5815 5816 5816 5818 5819 5818 5819 5819 5816 5814 5814 5812 5808 5805 5803 5800
5704 5707 5713 5717 5722 5726 5732 5740 5744 5746 5749 5752 5755 5760 5769 5770 5773 5777 5779 5783 5785 5788 5790 5794 5797 5800 5802 5806 5808 5809 5811 5811 5812 5813 5812 5812 5811 5812 5809 5807 5806 5804 5800 5797 5791
5691 5696 5701 5707 5713 5718 5723 5731 5735 5736 5739 5742 5747 5751 5757 5762 5765 5768 5772 5775 5779 5783 5785 5786 5791 5793 5795 5797 5801 5802 5803 5804 5805 5806 5805 5803 5804 5804 5803 5802 5800 5798 5794 5790 5785
5677 5683 5688 5695 5701 5707 5712 5720 5724 5728 5733 5735 5740 5744 5749 5756 5759 5761 5764 5768 5770 5775 5778 5782 5785 5787 5787 5791 5792 5793 5794 5796 5797 5798 5798 5798 5799 5798 5797 5796 5795 5792 5788 5784 5778
Wind_Speed
14 14 13 13 13 12 11 10 9 8 7 6 7 9 10 11 12 12 12 10 11 13 13 13 10 9 13 23 31 28 24 21 20 19 11 13 14 11 5 10 16 20 25 12 16
14 13 12 12 12 12 13 13 12 11 10 9 8 8 8 8 9 12 15 14 14 12 13 13 11 10 9 15 26 34 28 22 19 21 18 16 13 8 6 8 14 19 13 18 21
15 14 13 11 11 10 10 12 14 15 14 12 10 9 9 9 9 8 12 13 15 16 15 13 14 12 8 8 16 36 31 23 26 22 19 17 15 11 10 8 11 16 18 20 22
15 15 14 13 12 10 9 9 10 13 14 14 12 11 11 11 11 10 10 13 14 15 17 16 17 16 16 15 21 34 39 33 33 29 30 26 20 21 11 9 13 16 18 21 24
17 18 17 15 14 12 10 9 9 10 11 11 13 12 12 13 12 11 11 12 14 14 15 16 19 18 20 17 18 36 45 40 38 37 31 30 27 18 16 13 16 22 22 20 22
21 20 19 18 16 14 12 11 10 9 8 10 11 12 13 12 13 13 12 13 13 14 15 13 13 13 16 17 19 33 41 41 38 35 29 28 26 14 13 18 21 21 20 23 23
22 22 21 20 19 17 15 13 12 10 9 8 9 12 15 13 13 14 15 14 13 12 12 13 15 14 12 14 21 31 30 35 34 34 33 31 25 19 18 23 27 22 18 14 19
23 23 23 22 21 20 18 16 15 13 12 10 10 9 9 14 16 16 15 15 15 15 14 14 15 17 17 17 20 30 23 26 31 33 32 27 26 24 22 21 22 19 13 13 16
23 24 25 24 24 23 21 19 18 17 15 13 13 11 9 13 15 14 16 16 16 17 17 16 18 20 21 20 20 23 27 27 31 33 30 28 23 24 17 19 21 18 15 14 17
23 24 25 26 26 26 24 23 22 20 18 17 17 16 13 12 12 13 16 17 19 18 18 18 19 19 17 16 15 18 22 26 32 30 31 23 22 17 12 18 20 19 20 21 14
23 24 25 26 27 28 27 26 24 22 21 21 20 20 17 16 15 15 14 16 18 17 18 19 17 17 21 20 21 24 27 25 25 28 29 27 22 23 23 22 18 20 19 16 16
23 22 23 24 25 27 25 24 23 21 23 24 23 23 20 19 18 19 18 16 17 17 20 17 16 23 23 23 25 25 25 24 22 27 28 24 22 22 22 18 18 24 23 22 23
28 27 27 26 26 26 22 20 20 22 22 23 22 24 22 20 22 22 21 19 18 19 19 19 22 21 21 23 25 26 27 26 25 27 30 27 22 20 23 20 20 28 30 27 27
33 31 31 30 30 30 26 24 25 25 23 23 23 24 21 21 21 25 23 22 21 22 22 23 23 23 24 21 23 23 26 25 23 22 28 27 22 20 23 19 25 32 33 33 35
36 35 35 34 33 32 28 30 29 27 27 25 24 24 23 21 25 23 26 25 22 25 21 21 24 26 21 21 24 21 27 27 25 22 24 27 29 27 26 26 31 33 33 36 41
37 37 36 34 34 31 31 33 30 31 29 26 22 26 25 26 30 25 24 24 26 27 22 26 27 24 22 22 25 23 26 25 25 24 23 23 32 37 36 35 36 37 38 37 37
40 37 36 35 36 32 32 33 31 32 26 30 29 28 28 25 28 26 26 25 24 24 20 25 25 20 20 21 21 19 21 23 24 23 22 22 28 33 37 36 37 37 37 35 32
42 39 37 40 37 35 35 35 35 30 29 33 32 31 29 30 28 27 27 25 23 23 23 25 25 22 24 22 25 26 25 26 24 22 22 24 28 31 32 33 35 34 34 33 30
41 39 39 41 37 37 37 38 32 27 31 35 35 33 34 33 34 34 30 28 28 26 25 24 21 24 24 25 28 25 26 24 25 25 24 24 26 28 28 29 32 32 31 31 32
38 38 39 38 38 39 39 37 31 28 31 36 37 37 38 37 35 35 33 31 30 30 32 30 27 28 24 28 31 28 24 26 26 26 27 28 26 27 28 29 31 33 31 33 37
36 36 38 39 38 39 38 32 28 30 35 37 39 40 40 41 39 37 36 34 32 31 31 30 30 27 27 31 32 29 27 29 29 29 29 29 30 30 28 29 33 36 37 39 40
36 36 37 39 38 37 35 32 34 38 43 41 40 41 40 40 38 36 37 37 36 34 33 29 30 27 31 34 35 30 31 30 30 29 30 29 32 32 33 36 36 36 38 40 42
39 38 38 39 39 38 38 37 35 36 41 41 41 42 42 40 35 33 35 37 36 31 33 30 31 27 30 35 39 38 33 32 34 33 30 31 33 35 35 34 36 40 42 43 45
41 42 40 42 41 42 42 39 33 35 38 41 41 39 40 39 36 36 33 37 38 37 34 32 34 33 29 28 35 37 34 35 33 33 35 33 35 38 37 36 39 35 37 42 44
47 45 44 43 43 44 41 37 33 35 37 38 39 38 37 39 38 37 38 40 43 41 39 34 30 33 33 31 31 36 40 41 29 33 38 33 34 32 33 31 29 32 36 38 41
50 49 47 44 42 44 42 36 35 38 38 39 37 36 33 39 40 41 39 39 41 42 44 43 40 38 37 40 32 34 38 30 29 36 36 37 32 25 25 23 27 30 33 34 34
49 51 52 49 46 46 45 41 39 40 39 39 37 35 32 30 36 37 39 41 44 42 44 44 39 34 32 30 30 37 38 34 34 37 32 32 29 24 23 26 26 27 30 35 35
Wind_Direction
242 238 235 232 231 228 224 223 219 212 210 206 202 209 215 217 215 209 210 204 202 204 202 210 211 209 202 202 199 180 176 220 237 234 254 275 274 282 304 324 329 328 335 316 322
244 238 233 230 230 229 228 228 226 223 218 216 212 211 211 216 221 220 218 211 212 210 203 200 199 208 210 216 197 184 189 222 244 248 240 258 273 290 280 310 319 329 336 332 310
241 237 236 229 224 225 227 230 230 228 224 222 218 218 218 221 219 217 213 210 212 210 212 195 199 201 197 191 182 185 196 219 242 243 234 244 234 251 256 286 312 310 329 338 298
240 235 231 229 227 223 224 230 232 230 227 222 221 221 221 222 215 218 213 202 206 208 212 204 205 200 193 191 184 181 196 213 232 234 233 235 257 280 290 297 309 317 328 326 304
241 236 232 229 228 227 224 224 229 232 228 218 214 213 219 223 219 219 220 216 209 208 208 206 214 212 210 198 197 187 193 210 225 240 238 240 282 276 294 306 316 312 318 315 313
238 236 232 232 230 229 230 230 229 229 231 224 216 217 223 225 224 221 216 218 217 218 214 213 217 218 227 221 207 203 204 216 229 237 246 258 278 281 302 321 318 322 316 324 310
239 236 232 231 232 232 233 236 239 239 232 232 226 228 231 230 228 229 224 224 227 226 222 220 217 225 225 224 208 216 222 225 233 241 251 278 286 300 317 323 318 312 329 336 311
240 237 236 234 234 235 235 236 240 242 244 240 232 233 237 228 228 226 228 231 228 228 227 220 218 208 211 206 217 223 239 240 243 245 261 270 273 285 303 301 294 304 324 318 314
242 241 238 238 238 239 240 242 243 244 244 245 246 241 227 237 241 229 227 231 234 234 231 226 223 228 221 213 207 217 230 241 239 244 245 257 255 263 268 284 291 296 310 310 315
243 242 242 241 242 243 243 245 245 246 246 248 249 247 238 254 250 237 237 229 234 237 240 231 229 234 235 235 228 217 215 213 216 220 225 229 237 244 258 277 290 299 307 320 320
244 243 244 244 244 244 245 247 248 248 250 247 248 251 246 238 247 249 243 243 241 237 241 238 234 231 226 224 223 226 225 224 229 232 239 237 221 239 250 265 289 300 309 313 314
248 246 244 244 245 247 247 250 251 250 248 248 248 249 246 246 240 242 245 247 241 235 238 235 229 231 233 227 228 230 237 238 238 250 263 257 250 249 258 273 296 299 310 317 317
249 250 249 246 247 249 248 249 249 244 241 246 244 247 242 244 243 243 243 240 244 241 240 229 231 238 243 241 237 237 236 235 233 242 256 259 259 271 277 293 299 291 300 309 313
253 252 252 250 249 251 250 249 248 247 246 244 241 242 245 237 239 242 240 238 238 241 235 235 236 231 232 237 243 246 249 246 246 244 245 257 264 255 261 275 280 280 291 300 305
256 256 255 255 253 252 250 248 246 248 251 246 244 247 242 243 235 237 237 236 237 241 238 239 237 237 238 237 245 246 244 250 253 248 245 248 256 260 264 262 264 275 284 288 288
253 253 254 254 254 251 248 247 246 245 245 248 239 241 240 235 239 237 237 236 236 241 234 237 245 243 241 242 246 244 245 249 253 260 261 256 254 256 254 265 271 272 276 279 282
251 250 248 248 251 247 245 247 245 247 243 245 244 234 237 234 239 237 237 236 239 242 237 236 244 242 243 244 251 250 240 246 255 257 261 257 257 259 261 265 266 270 272 279 283
248 248 247 248 247 245 244 246 247 242 237 246 243 243 243 240 240 234 234 232 233 237 234 228 231 236 236 237 238 242 245 248 255 258 258 260 258 263 267 271 273 276 278 281 278
245 243 243 246 243 242 243 246 246 239 235 240 241 239 238 235 234 237 239 236 233 235 235 237 233 240 244 243 247 251 254 258 259 260 261 265 270 272 272 273 274 278 280 285 287
243 239 240 239 238 239 241 241 239 236 233 235 238 235 237 238 235 239 239 238 235 235 237 239 234 234 234 240 247 249 252 249 258 262 263 270 274 277 281 283 284 282 281 283 283
242 239 235 235 236 235 238 237 235 232 231 230 234 237 237 238 238 238 241 239 233 231 233 236 237 230 229 233 238 247 253 253 262 266 273 278 283 288 289 284 282 282 282 287 291
241 238 233 231 233 232 234 234 230 228 232 230 227 233 238 241 246 242 240 242 240 233 236 234 236 211 225 225 237 240 245 251 257 268 273 275 286 291 289 286 293 294 289 290 295
240 238 232 230 228 229 231 233 233 233 237 235 229 230 232 239 244 248 252 248 247 240 235 233 238 225 220 228 237 245 249 245 252 272 276 284 292 292 295 290 295 291 287 286 286
237 239 234 230 226 227 230 233 229 227 232 235 238 231 237 238 241 243 246 248 250 252 250 243 241 246 245 239 242 241 246 249 258 274 284 287 289 289 289 287 295 299 294 298 301
235 236 235 232 229 230 230 231 226 226 229 232 237 237 230 239 240 238 241 243 247 247 249 248 247 248 247 248 246 248 251 250 256 279 279 287 287 283 279 284 290 295 299 303 305
234 233 235 235 229 230 228 226 224 225 226 230 230 234 230 228 234 238 237 242 242 245 247 253 251 253 244 251 244 261 264 243 268 271 272 279 279 280 280 287 296 305 312 317 306
233 232 233 231 230 228 228 223 223 227 227 230 233 234 233 224 231 239 241 237 241 245 245 245 249 256 251 259 263 259 265 270 264 261 266 270 275 279 283 288 296 305 314 320 317